DW6801 Kvistgard DK current weather conditions

sailwx.info

Wind from 057 at 0 knots gusting 2

Air temperature -0.0° C
Dewpoint -0.9° C

Last reported at 2019-Jan-22 05:07 UTC.
Time now 2019-Jan-22 05:56 UTC

Location: N 55°60' E 012°29'.
View on Google Maps.

See reports from other nearby stations

  
Tides and Currents Weather Stations Pressure Air Temp Water Temp Dewpoint Dewpoint Depression Visibility Wind Speed Wind Dir Waves Ship Positions
date/time (UTC)wind fromknots sea level pressurealtimeterstation pressurevisibilityair tempwater tempwave heightnotes
2019-Jan-22 05:07 057 0 gusting 2 -0.0
2019-Jan-22 04:58 058 0 gusting 2 -0.0
2019-Jan-22 04:49 058 -0.0
2019-Jan-22 04:40 058 -0.0
2019-Jan-22 04:31 -0.6
2019-Jan-22 04:22 -0.6
2019-Jan-22 04:13 -0.6
2019-Jan-22 04:04 -0.6
2019-Jan-22 03:55 057 0 gusting 1 -0.6
2019-Jan-22 03:46 058 -0.0
2019-Jan-22 03:37 -0.0
2019-Jan-22 03:28 058 -0.0
2019-Jan-22 03:19 -0.0
2019-Jan-22 03:10 058 -0.6
2019-Jan-22 03:01 058 -0.0
2019-Jan-22 02:52 -0.0
2019-Jan-22 02:43 058 -0.0
2019-Jan-22 02:34 057 -0.6
2019-Jan-22 02:25 -0.6
2019-Jan-22 02:16 -0.6
2019-Jan-22 02:07 057 -0.6
2019-Jan-22 01:58 057 0 gusting 1 -0.6
2019-Jan-22 01:49 058 1 gusting 2 -0.6
2019-Jan-22 01:40 058 0 gusting 2 -0.6
2019-Jan-22 01:31 057 0 gusting 2 -0.0
2019-Jan-22 01:22 057 0 gusting 2 -0.0
2019-Jan-22 01:13 047 1 gusting 3 -0.0
2019-Jan-22 01:04 009 1 gusting 3 -0.0
2019-Jan-22 00:55 282 1 gusting 3 -0.0
2019-Jan-22 00:46 255 0 gusting 2 -0.0
2019-Jan-22 00:37 255 -0.0
2019-Jan-22 00:28 255 -0.0
2019-Jan-22 00:19 255 0 gusting 1 -0.0
2019-Jan-22 00:10 255 0 gusting 2 -0.0
2019-Jan-22 00:01 255 1 gusting 3 -0.0
2019-Jan-21 23:52 313 2 gusting 4 -0.0
2019-Jan-21 23:43 036 0 gusting 2 -0.0
2019-Jan-21 23:34 037 -0.0
2019-Jan-21 23:25 036 0 gusting 2 -0.0
2019-Jan-21 23:16 037 -0.0
2019-Jan-21 23:07 -0.0
2019-Jan-21 22:58 036 0 gusting 4 -0.0
2019-Jan-21 22:49 036 0.6
2019-Jan-21 22:40 035 1 gusting 5 0.6
2019-Jan-21 22:31 006 1 gusting 4 0.6
2019-Jan-21 22:22 355 0 gusting 4 0.6
2019-Jan-21 22:13 355 0 gusting 2 0.6
2019-Jan-21 22:04 355 0 gusting 5 0.6
2019-Jan-21 21:55 355 0 gusting 2 0.6
2019-Jan-21 21:46 355 1 gusting 3 0.6
2019-Jan-21 21:37 001 1 gusting 5 0.6
2019-Jan-21 21:28 038 2 gusting 6 0.6
2019-Jan-21 21:19 032 2 gusting 6 0.6
2019-Jan-21 21:10 023 2 gusting 6 0.6
2019-Jan-21 21:01 022 2 gusting 5 0.6
2019-Jan-21 20:52 016 1 gusting 4 0.6
2019-Jan-21 20:43 015 1 gusting 3 0.6
2019-Jan-21 20:34 019 0 gusting 4 0.6
2019-Jan-21 20:25 036 1 gusting 3 0.6
2019-Jan-21 20:16 010 2 gusting 6 0.6
2019-Jan-21 20:07 314 1 gusting 4 0.6
2019-Jan-21 19:58 314 1 gusting 4 0.6
2019-Jan-21 19:49 310 2 gusting 6 0.6
2019-Jan-21 19:40 308 1 gusting 3 0.6
2019-Jan-21 19:31 314 3 gusting 6 0.6
2019-Jan-21 19:22 325 1 gusting 4 0.6
2019-Jan-21 19:13 325 0 gusting 2 0.6
2019-Jan-21 19:04 325 1 gusting 3 0.6
2019-Jan-21 18:55 322 1 gusting 3 0.6
2019-Jan-21 18:46 326 1 gusting 4 0.6
2019-Jan-21 18:37 325 1 gusting 4 0.6
2019-Jan-21 18:28 320 0 gusting 3 0.6
2019-Jan-21 18:19 319 1 gusting 3 0.6
2019-Jan-21 18:10 314 1 gusting 3 0.6
2019-Jan-21 18:01 315 1 gusting 3 0.6
2019-Jan-21 17:52 315 1 gusting 5 0.6
2019-Jan-21 17:43 314 1 gusting 3 0.6
2019-Jan-21 17:34 315 1 gusting 3 0.6
2019-Jan-21 17:25 315 1 gusting 3 0.6
2019-Jan-21 17:16 307 2 gusting 6 0.6
2019-Jan-21 17:07 326 2 gusting 6 0.6
2019-Jan-21 16:58 327 2 gusting 6 0.6
2019-Jan-21 16:49 327 2 gusting 6 0.6
2019-Jan-21 16:40 326 2 gusting 5 0.6
2019-Jan-21 16:31 324 2 gusting 5 0.6
2019-Jan-21 16:22 294 1 gusting 5 0.6
2019-Jan-21 16:13 291 1 gusting 3 0.6
2019-Jan-21 16:04 205 1 gusting 3 0.6
2019-Jan-21 15:55 186 0.6
2019-Jan-21 15:46 187 0.6
2019-Jan-21 15:37 187 1 gusting 2 0.6
2019-Jan-21 15:28 186 0 gusting 2 0.6
2019-Jan-21 15:19 186 0 gusting 3 0.6
2019-Jan-21 15:10 186 0 gusting 3 0.6
2019-Jan-21 15:01 186 1 gusting 2 0.6
2019-Jan-21 14:52 196 1 gusting 4 0.6
2019-Jan-21 14:43 205 3 gusting 6 0.6
2019-Jan-21 14:34 199 3 gusting 6 0.6
2019-Jan-21 14:25 196 4 gusting 8 0.6
2019-Jan-21 14:16 187 3 gusting 7 0.6
2019-Jan-21 14:07 187 2 gusting 6 0.6
2019-Jan-21 13:58 181 3 gusting 6 0.6
2019-Jan-21 13:49 161 4 gusting 7 0.6
2019-Jan-21 13:40 172 3 gusting 7 0.6
2019-Jan-21 13:31 172 4 gusting 7 0.6
2019-Jan-21 13:22 175 2 gusting 6 0.6
2019-Jan-21 13:13 177 3 gusting 7 0.6
2019-Jan-21 13:04 178 3 gusting 6 0.6
2019-Jan-21 12:55 190 3 gusting 7 0.6
2019-Jan-21 12:46 194 3 gusting 8 0.6
2019-Jan-21 12:37 200 3 gusting 6 0.6
2019-Jan-21 12:28 200 3 gusting 9 0.6
2019-Jan-21 12:19 195 5 gusting 10 0.6
2019-Jan-21 12:10 201 4 gusting 8 0.6
2019-Jan-21 12:01 206 4 gusting 8 0.6
2019-Jan-21 11:52 205 5 gusting 12 0.6
2019-Jan-21 11:43 203 5 gusting 12 0.6
2019-Jan-21 11:34 214 6 gusting 12 0.6
2019-Jan-21 11:25 214 6 gusting 13 0.6
2019-Jan-21 11:16 224 6 gusting 12 0.6
2019-Jan-21 11:07 220 5 gusting 9 0.6
2019-Jan-21 10:58 222 6 gusting 13 0.6
2019-Jan-21 10:49 221 6 gusting 12 0.6
2019-Jan-21 10:40 226 6 gusting 12 0.6
2019-Jan-21 10:31 228 6 gusting 13 0.6
2019-Jan-21 10:22 224 6 gusting 13 0.6
2019-Jan-21 10:13 219 6 gusting 13 -0.0
2019-Jan-21 10:04 224 6 gusting 11 -0.0
2019-Jan-21 09:55 224 8 gusting 16 -0.0
2019-Jan-21 09:46 224 7 gusting 13 -0.0
2019-Jan-21 09:37 223 8 gusting 17 -0.0
2019-Jan-21 09:28 223 6 gusting 15 -0.0
2019-Jan-21 09:19 220 7 gusting 15 -0.0
2019-Jan-21 09:10 221 6 gusting 13 -0.0
2019-Jan-21 09:01 220 6 gusting 13 -0.0
2019-Jan-21 08:52 215 7 gusting 15 -0.0
2019-Jan-21 08:43 210 6 gusting 13 -0.0
2019-Jan-21 08:34 212 6 gusting 12 -0.0
2019-Jan-21 08:25 210 6 gusting 14 -0.0
2019-Jan-21 08:16 213 6 gusting 14 -0.0
2019-Jan-21 08:07 216 6 gusting 13 -0.0
2019-Jan-21 07:58 195 6 gusting 13 -0.0
2019-Jan-21 07:49 189 6 gusting 12 -0.6
2019-Jan-21 07:40 176 6 gusting 13 -0.6
2019-Jan-21 07:31 183 5 gusting 9 -0.6
2019-Jan-21 07:22 187 5 gusting 13 -0.6
2019-Jan-21 07:13 193 6 gusting 13 -0.0
2019-Jan-21 07:04 196 6 gusting 13 -0.0
2019-Jan-21 06:55 208 5 gusting 10 -0.0
2019-Jan-21 06:46 205 6 gusting 13 -0.0
2019-Jan-21 06:37 202 6 gusting 12 -0.0
2019-Jan-21 06:28 199 6 gusting 11 -0.0
2019-Jan-21 06:19 195 6 gusting 13 -0.0
2019-Jan-21 06:10 193 5 gusting 13 -0.0
2019-Jan-21 06:01 185 4 gusting 11 -0.0
2019-Jan-21 05:52 203 4 gusting 11 -0.0
2019-Jan-21 05:43 193 4 gusting 8 -0.0
2019-Jan-21 05:34 170 4 gusting 8 -0.0
2019-Jan-21 05:25 175 4 gusting 7 -0.0
2019-Jan-21 05:16 200 4 gusting 7 -0.0
2019-Jan-21 05:07 205 5 gusting 8 -0.0
2019-Jan-21 04:58 196 4 gusting 8 -0.0
2019-Jan-21 04:49 196 4 gusting 7 -0.0
2019-Jan-21 04:40 204 4 gusting 9 -0.0
2019-Jan-21 04:31 214 5 gusting 8 -0.0
2019-Jan-21 04:22 209 5 gusting 10 -0.0
2019-Jan-21 04:13 216 5 gusting 9 -0.0
2019-Jan-21 04:04 222 4 gusting 10 -0.0
2019-Jan-21 03:55 225 5 gusting 8 -0.0
2019-Jan-21 03:46 225 5 gusting 8 -0.0
2019-Jan-21 03:37 228 4 gusting 9 -0.0
2019-Jan-21 03:28 223 4 gusting 9 -0.0
2019-Jan-21 03:19 225 4 gusting 7 -0.0
2019-Jan-21 03:10 222 4 gusting 6 -0.0
2019-Jan-21 03:01 223 3 gusting 7 -0.0
2019-Jan-21 02:52 216 3 gusting 6 -0.0
2019-Jan-21 02:43 221 3 gusting 6 -0.0
2019-Jan-21 02:34 222 3 gusting 6 -0.0
2019-Jan-21 02:25 225 3 gusting 6 -0.0
2019-Jan-21 02:16 219 3 gusting 8 -0.0
2019-Jan-21 02:07 221 3 gusting 6 -0.0
2019-Jan-21 01:58 224 3 gusting 6 -0.0
2019-Jan-21 01:49 221 3 gusting 6 -0.0
2019-Jan-21 01:40 222 4 gusting 6 -0.0
2019-Jan-21 01:31 228 4 gusting 7 0.6
2019-Jan-21 01:22 227 4 gusting 8 0.6
2019-Jan-21 01:13 229 4 gusting 8 0.6
2019-Jan-21 01:04 233 4 gusting 8 0.6
2019-Jan-21 00:55 232 5 gusting 9 0.6
2019-Jan-21 00:46 227 5 gusting 9 0.6
2019-Jan-21 00:37 231 4 gusting 9 0.6
2019-Jan-21 00:28 232 4 gusting 9 0.6
2019-Jan-21 00:19 234 5 gusting 10 0.6
2019-Jan-21 00:10 238 6 gusting 10 0.6
2019-Jan-21 00:01 237 6 gusting 10 0.6
2019-Jan-20 23:52 239 6 gusting 10 0.6
2019-Jan-20 23:43 238 6 gusting 10 0.6
2019-Jan-20 23:34 236 6 gusting 10 0.6
2019-Jan-20 23:25 231 5 gusting 10 -0.0
2019-Jan-20 23:16 229 4 gusting 6 -0.0
2019-Jan-20 23:07 225 3 gusting 6 -0.0
2019-Jan-20 22:58 224 3 gusting 6 -0.0
2019-Jan-20 22:49 223 3 gusting 6 -0.0
2019-Jan-20 22:40 230 3 gusting 6 -0.0
2019-Jan-20 22:31 232 3 gusting 7 -0.0
2019-Jan-20 22:22 234 5 gusting 8 -0.0
2019-Jan-20 22:13 235 5 gusting 9 -0.0
2019-Jan-20 22:04 232 4 gusting 6 -0.0
2019-Jan-20 21:55 236 4 gusting 7 -0.0
2019-Jan-20 21:46 234 3 gusting 7 -0.0
2019-Jan-20 21:37 235 4 gusting 6 0.6
2019-Jan-20 21:28 241 4 gusting 6 0.6
2019-Jan-20 21:19 240 4 gusting 6 0.6
2019-Jan-20 21:10 238 4 gusting 7 0.6
2019-Jan-20 21:01 238 4 gusting 7 0.6
2019-Jan-20 20:52 240 5 gusting 8 0.6
2019-Jan-20 20:43 241 6 gusting 8 0.6
2019-Jan-20 20:34 245 5 gusting 8 0.6
2019-Jan-20 20:25 241 5 gusting 7 0.6
2019-Jan-20 20:16 241 5 gusting 8 0.6
2019-Jan-20 20:07 244 5 gusting 7 0.6
2019-Jan-20 19:58 242 5 gusting 8 0.6
2019-Jan-20 19:49 242 6 gusting 8 0.6
2019-Jan-20 19:40 240 5 gusting 9 0.6
2019-Jan-20 19:31 243 5 gusting 9 0.6
2019-Jan-20 19:22 239 5 gusting 7 0.6
2019-Jan-20 19:13 240 6 gusting 8 0.6
2019-Jan-20 19:04 242 5 gusting 8 0.6
2019-Jan-20 18:55 234 4 gusting 8 0.6
2019-Jan-20 18:46 240 4 gusting 6 0.6
2019-Jan-20 18:37 246 4 gusting 6 0.6
2019-Jan-20 18:28 244 5 gusting 8 0.6
2019-Jan-20 18:19 240 5 gusting 8 1.1
2019-Jan-20 18:10 248 6 gusting 8 1.1
2019-Jan-20 18:01 248 6 gusting 8 1.1
2019-Jan-20 17:52 248 6 gusting 8 1.1
2019-Jan-20 17:43 250 6 gusting 8 1.1
2019-Jan-20 17:34 245 6 gusting 9 1.1
2019-Jan-20 17:25 247 6 gusting 10 1.1
2019-Jan-20 17:16 246 5 gusting 10 1.1
2019-Jan-20 17:07 244 4 gusting 7 1.1
2019-Jan-20 16:58 243 3 gusting 6 1.1
2019-Jan-20 16:49 238 3 gusting 6 1.1
2019-Jan-20 16:40 239 3 gusting 5 1.1
2019-Jan-20 16:31 240 3 gusting 6 1.1
2019-Jan-20 16:22 234 4 gusting 7 1.1
2019-Jan-20 16:13 243 4 gusting 8 1.1
2019-Jan-20 16:04 242 4 gusting 9 1.1
2019-Jan-20 15:55 239 4 gusting 8 1.1
2019-Jan-20 15:46 242 5 gusting 8 1.1
2019-Jan-20 15:37 247 4 gusting 7 1.1
2019-Jan-20 15:28 246 5 gusting 7 1.1
2019-Jan-20 15:19 246 6 gusting 9 1.1
2019-Jan-20 15:10 245 6 gusting 8 1.1
2019-Jan-20 15:01 247 6 gusting 8 1.1
2019-Jan-20 14:52 247 6 gusting 8 1.1
2019-Jan-20 14:43 247 6 gusting 8 1.1
2019-Jan-20 14:34 244 6 gusting 8 1.1
2019-Jan-20 14:25 239 4 gusting 6 1.1
2019-Jan-20 14:16 235 4 gusting 6 1.1
2019-Jan-20 14:07 233 4 gusting 6 1.1
2019-Jan-20 13:58 230 5 gusting 8 1.1
2019-Jan-20 13:49 238 6 gusting 9 1.1
2019-Jan-20 13:40 246 6 gusting 10 1.1
2019-Jan-20 13:31 244 6 gusting 11 1.1
2019-Jan-20 13:22 248 6 gusting 10 1.1
2019-Jan-20 13:13 243 6 gusting 10 1.1
2019-Jan-20 13:04 243 6 gusting 8 1.1
2019-Jan-20 12:55 244 5 gusting 7 1.1
2019-Jan-20 12:46 240 5 gusting 9 0.6
2019-Jan-20 12:37 236 5 gusting 9 0.6
2019-Jan-20 12:28 246 5 gusting 8 0.6
2019-Jan-20 12:19 241 6 gusting 8 0.6
2019-Jan-20 12:10 244 5 gusting 8 0.6
2019-Jan-20 12:01 243 4 gusting 6 0.6
2019-Jan-20 11:52 247 5 gusting 7 0.6
2019-Jan-20 11:43 251 6 gusting 7 0.6
2019-Jan-20 11:34 248 6 gusting 8 0.6
2019-Jan-20 11:25 256 6 gusting 8 -0.0
2019-Jan-20 11:16 250 6 gusting 9 -0.0
2019-Jan-20 11:07 248 6 gusting 7 -0.0
2019-Jan-20 10:58 247 6 gusting 7 -0.0
2019-Jan-20 10:49 247 6 gusting 8 -0.0
2019-Jan-20 10:40 251 6 gusting 7 -0.0
2019-Jan-20 10:31 249 6 gusting 9 -0.0
2019-Jan-20 10:22 255 5 gusting 7 -0.0
2019-Jan-20 10:13 248 5 gusting 8 -0.0
2019-Jan-20 10:04 249 5 gusting 7 -0.0
2019-Jan-20 09:55 249 5 gusting 7 -0.0
2019-Jan-20 09:46 252 6 gusting 7 -0.6
2019-Jan-20 09:37 248 6 gusting 7 -0.6
2019-Jan-20 09:28 246 4 gusting 7 -0.6
2019-Jan-20 09:19 247 5 gusting 7 -1.1
2019-Jan-20 09:10 247 5 gusting 7 -1.1
2019-Jan-20 09:01 245 6 gusting 9 -1.7
2019-Jan-20 08:52 238 5 gusting 8 -1.7
2019-Jan-20 08:43 247 5 gusting 7 -1.7
2019-Jan-20 08:34 249 5 gusting 7 -1.7
2019-Jan-20 08:25 249 5 gusting 7 -1.7
2019-Jan-20 08:16 250 6 gusting 8 -2.2
2019-Jan-20 08:07 245 6 gusting 9 -2.2
2019-Jan-20 07:58 244 6 gusting 8 -2.2
2019-Jan-20 07:49 244 6 gusting 8 -2.2
2019-Jan-20 07:40 244 6 gusting 8 -2.2
2019-Jan-20 07:31 244 5 gusting 7 -2.8
2019-Jan-20 07:22 241 4 gusting 7 -2.8
2019-Jan-20 07:13 239 4 gusting 6 -2.8
2019-Jan-20 07:04 234 4 gusting 6 -2.8
2019-Jan-20 06:55 234 4 gusting 6 -3.3
2019-Jan-20 06:46 233 3 gusting 6 -3.3
2019-Jan-20 06:37 233 3 gusting 5 -3.3
2019-Jan-20 06:28 233 3 gusting 5 -2.8
2019-Jan-20 06:19 232 4 gusting 7 -2.8
2019-Jan-20 06:10 232 4 gusting 6 -2.8
2019-Jan-20 06:01 236 5 gusting 8 -2.2
2019-Jan-20 05:52 234 6 gusting 10 -2.2
2019-Jan-20 05:43 232 5 gusting 10 -2.8
2019-Jan-20 05:34 235 4 gusting 7 -2.8
2019-Jan-20 05:25 239 4 gusting 6 -2.8
2019-Jan-20 05:16 241 3 gusting 6 -2.8
2019-Jan-20 05:07 248 3 gusting 6 -2.2